Zurück zum Katalog

STARLINK-2399

AktivKommunikationVLEO
NORAD 47816·PAYLOAD·🇺🇸 United States

Gestartet Mar 11, 2021 von Cape Canaveral Space Force Station

Loading…

Nächste Überflüge (nächste 24 Stunden)

TLE

AktuellSource: CelesTrak SupGP

Epoche: Sep 14, 2026, 20:49 UTC

1 47816C 21018AF  26257.86784722 -.00004765  00000+0 -15327-3 0  2575
2 47816  53.1566  97.7963 0001246  85.7504 357.1566 15.31698673    10

Verfolge STARLINK-2399 in Echtzeit mit AllMySat

Download on the App Store